CW3322 Weather Reports


Display with metric or nautical units.
time (UTC)temp
F
wind
direction
speed
MPH
gust
MPH
rain 1hr
in
rain 24hr
in
rain mn
in
humidity
%
barometer
mb
20240623114524 73 355 0.0 0.0 0.00 0.00 0.00 68 1020.6
20240623114017 72 0.0 0.0 0.00 0.00 0.00 69 1020.6
20240623113724 71 0 0.0 1.0 0.00 0.00 0.00 71 1020.5
20240623113016 72 0.0 0.0 0.00 0.00 0.00 71 1020.6
20240623112521 72 345 0.0 5.0 0.00 0.00 0.00 70 1020.6
20240623112027 73 6 0.0 1.0 0.00 0.00 0.00 68 1020.8
20240623111520 73 0.0 0.0 0.00 0.00 0.00 67 1021.6
20240623111025 73 0.0 0.0 0.00 0.00 0.00 68 1021.6
20240623110518 73 323 0.0 1.0 0.00 0.00 0.00 67 1021.5
20240623110054 73 0.0 0.0 0.00 0.00 0.00 67 1020.6
20240623105547 73 359 0.0 1.0 0.00 0.00 0.00 66 1020.6
20240623105023 73 359 0.0 4.0 0.00 0.00 0.00 66 1020.6
20240623104546 74 9 0.0 2.0 0.00 0.00 0.00 65 1020.6
20240623104021 74 352 0.0 2.0 0.00 0.00 0.00 68 1020.6
20240623103526 74 17 0.0 1.0 0.00 0.00 0.00 67 1020.6
20240623103019 73 15 0.0 2.0 0.00 0.00 0.00 68 1020.6
20240623102525 73 35 0.0 1.0 0.00 0.00 0.00 66 1020.6
20240623102118 72 326 0.0 0.0 0.00 0.00 0.00 69 1020.5
20240623101524 71 14 0.0 1.0 0.00 0.00 0.00 70 1020.5
20240623101016 70 309 0.0 2.0 0.00 0.00 0.00 71 1020.5
20240623100521 70 0.0 0.0 0.00 0.00 0.00 72 1020.5
20240623100026 70 315 0.0 1.0 0.00 0.00 0.00 72 1020.5
20240623095519 70 321 0.0 1.0 0.00 0.00 0.00 71 1020.5
20240623095024 70 333 0.0 1.0 0.00 0.00 0.00 73 1020.5
20240623094518 70 0.0 0.0 0.00 0.00 0.00 75 1020.5
20240623094023 71 320 0.0 1.0 0.00 0.00 0.00 74 1020.5
20240623093516 72 308 0.0 2.0 0.00 0.00 0.00 70 1020.5
20240623093021 71 0.0 0.0 0.00 0.00 0.00 69 1020.5
20240623092539 70 358 0.0 1.0 0.00 0.00 0.00 70 1020.5
20240623092032 69 341 0.0 0.0 0.00 0.00 0.00 76 1020.5
20240623091525 69 0.0 0.0 0.00 0.00 0.00 75 1020.5
20240623091018 69 306 0.0 2.0 0.00 0.00 0.00 75 1020.5
20240623090522 69 306 1.0 3.0 0.00 0.00 0.00 75 1020.5
20240623090045 70 312 0.0 1.0 0.00 0.00 0.00 75 1020.5
20240623085520 70 337 0.0 2.0 0.00 0.00 0.00 74 1020.5
20240623085025 70 0.0 0.0 0.00 0.01 0.00 74 1020.5
20240623084518 71 300 0.0 2.0 0.00 0.01 0.00 71 1020.5
20240623084023 71 322 0.0 1.0 0.00 0.01 0.00 73 1020.5
20240623083616 71 21 1.0 2.0 0.00 0.01 0.00 72 1020.5
20240623083021 71 25 0.0 2.0 0.00 0.01 0.00 73 1021.0
20240623082526 71 19 0.0 1.0 0.00 0.01 0.00 72 1021.5
20240623082019 70 12 0.0 1.0 0.00 0.01 0.00 76 1021.5
20240623081553 69 37 0.0 1.0 0.00 0.01 0.00 75 1021.1
20240623081016 69 12 0.0 1.0 0.00 0.01 0.00 77 1020.5
20240623080522 69 10 0.0 1.0 0.00 0.01 0.00 77 1020.5
20240623080027 67 12 0.0 0.0 0.00 0.01 0.00 79 1020.8
20240623075519 67 27 0.0 2.0 0.00 0.01 0.00 81 1021.5
20240623075024 66 34 0.0 2.0 0.00 0.02 0.00 81 1021.5
20240623074517 66 355 0.0 0.0 0.00 0.02 0.00 84 1021.5
20240623074023 66 15 0.0 2.0 0.00 0.02 0.00 82 1021.5
20240623073516 65 14 0.0 1.0 0.00 0.02 0.00 84 1021.5
20240623073021 65 0.0 0.0 0.00 0.02 0.00 86 1021.3
20240623072526 64 23 0.0 2.0 0.00 0.02 0.00 86 1020.5
20240623072019 64 0.0 0.0 0.00 0.03 0.00 89 1020.5
20240623071554 64 322 0.0 1.0 0.00 0.05 0.00 87 1020.5
20240623071017 64 0.0 0.0 0.00 0.05 0.00 90 1020.5
20240623070522 63 0.0 0.0 0.00 0.06 0.00 92 1020.5
20240623070015 62 0.0 0.0 0.00 0.06 0.00 94 1020.5
20240623065520 61 0.0 0.0 0.00 0.08 0.00 96 1021.4
20240623065025 60 0.0 0.0 0.00 0.10 0.00 98 1021.4
20240623064548 59 0.0 0.0 0.00 0.13 0.00 99 1021.4
20240623064024 59 0.0 0.0 0.00 0.13 0.00 99 1020.5
20240623063516 59 0.0 0.0 0.00 0.15 0.00 99 1020.4
20240623063052 58 0.0 0.0 0.00 0.15 0.00 99 1020.4
20240623062727 58 0.0 0.0 0.00 0.17 0.00 99 1020.4
20240623062019 58 0.0 0.0 0.00 0.17 0.00 99 1020.4
20240623061525 57 0.0 0.0 0.00 0.17 0.00 99 1020.4
20240623061018 57 0.0 0.0 0.00 0.17 0.00 99 1020.4
20240623060523 57 0.0 0.0 0.00 0.17 0.00 99 1020.4
20240623060016 57 0.0 0.0 0.00 0.17 0.00 99 1020.4
20240623055521 57 0.0 0.0 0.00 0.17 0.00 99 1020.3
20240623055039 56 0.0 0.0 0.00 0.17 0.00 99 1020.3
20240623054532 56 0.0 0.0 0.00 0.17 0.00 99 1020.3
20240623054024 56 0.0 0.0 0.00 0.17 0.00 99 1019.7
20240623053547 56 0.0 0.0 0.00 0.17 0.00 99 1019.4
20240623053052 56 0.0 0.0 0.00 0.17 0.00 99 1019.4
20240623052527 56 0.0 0.0 0.00 0.17 0.00 99 1020.0
20240623052020 56 0.0 0.0 0.00 0.17 0.00 99 1020.4
20240623051525 56 0.0 0.0 0.00 0.17 0.00 99 1020.4
20240623051017 56 0.0 0.0 0.00 0.17 0.00 99 1020.4
20240623050522 56 0.0 0.0 0.00 0.17 0.00 99 1020.4
20240623050015 56 0.0 0.0 0.00 0.17 0.00 99 1020.3
20240623045521 56 0.0 0.0 0.00 0.17 0.00 99 1020.3
20240623045056 56 0.0 0.0 0.00 0.17 0.00 99 1020.3
20240623044519 55 0.0 0.0 0.00 0.17 0.00 99 1020.3
20240623044024 55 0.0 0.0 0.00 0.17 0.00 99 1019.9
20240623043517 55 0.0 0.0 0.00 0.17 0.00 99 1019.3
20240623043052 55 0.0 0.0 0.00 0.17 0.00 99 1019.3
20240623042515 55 0.0 0.0 0.00 0.17 0.00 99 1019.3
20240623042020 55 0.0 0.0 0.00 0.17 0.00 99 1019.3
20240623041556 55 0.0 0.0 0.00 0.17 0.00 99 1019.3
20240623041049 55 0.0 0.0 0.00 0.17 0.00 99 1019.3
20240623040524 55 0.0 0.0 0.00 0.17 0.00 99 1019.3
20240623040017 55 0.0 0.0 0.00 0.17 0.00 99 1019.3
20240623035522 55 0.0 0.0 0.00 0.17 0.00 99 1019.3
20240623035016 55 0.0 0.0 0.00 0.17 0.00 99 1019.3
20240623034522 55 0.0 0.0 0.00 0.17 0.00 99 1019.3
20240623034025 55 0.0 0.0 0.00 0.17 0.00 99 1019.3
20240623033518 55 0.0 0.0 0.00 0.17 0.00 99 1019.3
20240623033023 55 0.0 0.0 0.00 0.17 0.00 99 1019.3
20240623032516 55 0.0 0.0 0.00 0.17 0.00 99 1019.3
20240623032021 55 0.0 0.0 0.00 0.17 0.00 99 1019.4
20240623031527 55 0.0 0.0 0.00 0.17 0.00 99 1019.4
20240623031020 55 0.0 0.0 0.00 0.17 0.00 99 1019.4
20240623030525 55 0.0 0.0 0.00 0.17 0.00 99 1019.4
20240623030018 55 0.0 0.0 0.00 0.17 0.00 99 1019.4
20240623025523 55 0.0 0.0 0.00 0.17 0.00 99 1019.3
20240623025046 55 0.0 0.0 0.00 0.17 0.00 99 1019.3
20240623024521 55 0.0 0.0 0.00 0.17 0.00 99 1019.4
20240623024056 56 0.0 0.0 0.00 0.17 0.00 99 1019.4
20240623023519 56 0.0 0.0 0.00 0.17 0.00 99 1019.4
20240623023024 56 0.0 0.0 0.00 0.17 0.00 99 1019.4
20240623022517 56 0.0 0.0 0.00 0.17 0.00 99 1019.4
20240623022022 56 0.0 0.0 0.00 0.17 0.00 99 1019.3
20240623021515 56 0.0 0.0 0.00 0.17 0.00 99 1019.3
20240623021103 56 0.0 0.0 0.00 0.17 0.00 99 1019.3
20240623020526 56 0.0 0.0 0.00 0.17 0.00 99 1019.3
20240623020049 56 0.0 0.0 0.00 0.17 0.00 99 1019.3
20240623015524 56 0.0 0.0 0.00 0.17 0.00 99 1019.3
20240623015016 56 0.0 0.0 0.00 0.17 0.00 99 1019.3
20240623014522 56 0.0 0.0 0.00 0.17 0.00 99 1019.3
20240623014027 56 0.0 0.0 0.00 0.17 0.00 99 1019.3
20240623013520 56 0.0 0.0 0.00 0.17 0.00 99 1019.3
20240623013025 56 0.0 0.0 0.00 0.17 0.00 99 1019.3
20240623012518 56 0.0 0.0 0.00 0.17 0.00 99 1019.3
20240623012023 56 0.0 0.0 0.00 0.17 0.00 99 1019.3
20240623011515 56 0.0 0.0 0.00 0.17 0.00 99 1019.3
20240623011020 56 0.0 0.0 0.00 0.17 0.00 99 1019.3
20240623010525 56 0.0 0.0 0.00 0.17 0.00 99 1019.3
20240623010018 56 0.0 0.0 0.00 0.17 0.00 99 1019.3
20240623005523 56 0.0 0.0 0.00 0.17 0.00 99 1019.3
20240623005017 56 0.0 0.0 0.00 0.17 0.00 99 1019.0
20240623004522 56 0.0 0.0 0.00 0.17 0.00 99 1018.3
20240623004045 56 0.0 0.0 0.00 0.17 0.00 99 1018.3
20240623003520 56 0.0 0.0 0.00 0.17 0.00 99 1018.5
20240623003026 56 0.0 0.0 0.00 0.17 0.00 99 1019.3
20240623002518 56 0.0 0.0 0.00 0.17 0.00 99 1019.3
20240623002023 56 0.0 0.0 0.00 0.17 0.00 99 1019.3
20240623001516 56 0.0 0.0 0.00 0.17 0.00 99 1019.3
20240623001021 56 0.0 0.0 0.00 0.17 0.00 99 1019.3
20240623000527 56 0.0 0.0 0.00 0.17 0.00 99 1019.3
20240623000020 56 0.0 0.0 0.00 0.17 0.00 99 1019.3
20240622235525 56 0.0 0.0 0.00 0.17 0.00 99 1019.3
20240622235017 56 0.0 0.0 0.00 0.17 0.00 99 1019.3
20240622234526 56 0.0 0.0 0.00 0.17 0.00 99 1019.3
20240622234019 56 0.0 0.0 0.00 0.17 0.00 99 1019.3
20240622233554 56 0.0 0.0 0.00 0.17 0.00 99 1019.3
20240622233017 56 0.0 0.0 0.00 0.17 0.00 99 1019.3
20240622232522 56 0.0 0.0 0.00 0.17 0.00 99 1019.3
20240622232015 56 0.0 0.0 0.00 0.17 0.00 99 1019.3
20240622231520 56 0.0 0.0 0.00 0.17 0.00 99 1019.3
20240622231038 56 0.0 0.0 0.00 0.17 0.00 99 1019.3
20240622230531 56 0.0 0.0 0.00 0.17 0.00 99 1019.3
20240622230024 56 0.0 0.0 0.00 0.17 0.00 99 1019.3
20240622225547 56 0.0 0.0 0.00 0.17 0.00 99 1019.2
20240622225022 56 0.0 0.0 0.00 0.17 0.00 99 1019.2
20240622224527 56 0.0 0.0 0.00 0.17 0.00 99 1019.2
20240622224020 56 0.0 0.0 0.00 0.17 0.00 99 1019.2
20240622223525 56 0.0 0.0 0.00 0.17 0.00 99 1019.2
20240622223018 56 0.0 0.0 0.00 0.17 0.00 99 1019.2
20240622222523 56 0.0 0.0 0.00 0.17 0.00 99 1019.2
20240622222016 56 0.0 0.0 0.00 0.17 0.00 99 1019.2
20240622221521 55 0.0 0.0 0.00 0.17 0.00 99 1019.2
20240622221056 55 0.0 0.0 0.00 0.17 0.00 99 1019.2
20240622220519 55 0.0 0.0 0.00 0.17 0.00 99 1019.2
20240622220024 55 0.0 0.0 0.00 0.17 0.00 99 1019.2
20240622215547 55 0.0 0.0 0.00 0.17 0.17 99 1019.2
20240622215021 55 0.0 0.0 0.00 0.17 0.17 99 1019.2
20240622214526 55 0.0 0.0 0.00 0.17 0.17 99 1019.2
20240622214019 55 0.0 0.0 0.00 0.17 0.17 99 1019.2
20240622213554 55 0.0 0.0 0.00 0.17 0.17 99 1019.2
20240622213117 55 0.0 0.0 0.00 0.17 0.17 99 1019.2
20240622212552 55 0.0 0.0 0.00 0.17 0.17 99 1019.2
20240622212016 55 0.0 0.0 0.00 0.17 0.17 99 1019.2
20240622211521 55 0.0 0.0 0.00 0.17 0.17 99 1018.7
20240622211127 55 0.0 0.0 0.00 0.17 0.17 99 1018.2
20240622210518 55 0.0 0.0 0.00 0.17 0.17 99 1018.1
20240622210024 55 0.0 0.0 0.00 0.17 0.17 99 1018.1
20240622205547 55 0.0 0.0 0.00 0.17 0.17 99 1018.1
20240622205022 55 0.0 0.0 0.00 0.17 0.17 99 1018.1
20240622204515 55 0.0 0.0 0.00 0.17 0.17 99 1018.1
20240622204020 55 0.0 0.0 0.00 0.17 0.17 99 1018.1
20240622203525 55 0.0 0.0 0.00 0.17 0.17 99 1018.1
20240622203018 56 0.0 0.0 0.00 0.17 0.17 99 1018.1
20240622202523 56 0.0 0.0 0.00 0.17 0.17 99 1018.2
20240622202016 56 0.0 0.0 0.00 0.17 0.17 99 1018.2
20240622201521 56 0.0 0.0 0.00 0.17 0.17 99 1017.9
20240622201027 56 0.0 0.0 0.00 0.17 0.17 99 1017.2
20240622200519 56 0.0 0.0 0.00 0.17 0.17 99 1017.2
20240622200025 57 0.0 0.0 0.00 0.17 0.17 99 1017.2
20240622195518 57 0.0 0.0 0.00 0.17 0.17 98 1017.2
20240622195023 57 0.0 0.0 0.00 0.17 0.17 98 1017.2
20240622194517 58 0.0 0.0 0.00 0.17 0.17 97 1017.2
20240622194022 58 0.0 0.0 0.00 0.17 0.17 96 1017.2
20240622193514 59 0.0 0.0 0.00 0.17 0.17 95 1017.3
20240622193033 59 0.0 0.0 0.00 0.17 0.17 95 1017.3
20240622192526 59 0.0 0.0 0.00 0.17 0.17 95 1017.3
20240622192019 60 0.0 0.0 0.00 0.17 0.17 94 1017.3
20240622191524 60 0.0 0.0 0.00 0.17 0.17 91 1017.3
20240622191017 61 0.0 0.0 0.00 0.17 0.17 89 1017.3
20240622190523 61 0.0 0.0 0.00 0.17 0.17 89 1017.3
20240622190016 62 0.0 0.0 0.00 0.17 0.17 88 1017.3
20240622185521 62 0.0 0.0 0.00 0.17 0.17 88 1017.3
20240622185045 62 0.0 0.0 0.00 0.17 0.17 89 1017.3
20240622184520 62 0.0 0.0 0.00 0.17 0.17 88 1017.3
20240622184026 62 0.0 0.0 0.00 0.17 0.17 88 1017.3
20240622183519 62 0.0 0.0 0.00 0.17 0.17 88 1017.3
20240622183024 62 0.0 0.0 0.00 0.17 0.17 88 1017.3
20240622182517 63 0.0 0.0 0.00 0.17 0.17 86 1017.4
20240622182053 63 0.0 0.0 0.00 0.17 0.17 86 1017.4
20240622181516 63 0.0 0.0 0.00 0.17 0.17 86 1017.4
20240622181022 63 0.0 0.0 0.00 0.17 0.17 85 1017.4
20240622180615 63 0.0 0.0 0.00 0.17 0.17 86 1017.4
20240622180020 64 0.0 0.0 0.00 0.17 0.17 85 1017.3
20240622175525 64 0.0 0.0 0.00 0.17 0.17 86 1017.3
20240622175019 64 0.0 0.0 0.00 0.17 0.17 85 1017.3
20240622174524 64 0.0 0.0 0.00 0.17 0.17 85 1017.4
20240622174017 64 0.0 0.0 0.00 0.17 0.17 85 1017.4
20240622173553 64 0.0 0.0 0.00 0.17 0.17 85 1017.4
20240622173046 64 0.0 0.0 0.00 0.17 0.17 84 1017.4
20240622172521 64 0.0 0.0 0.00 0.17 0.17 83 1017.4
20240622172027 64 0.0 0.0 0.00 0.17 0.17 82 1017.4
20240622171520 64 0.0 0.0 0.00 0.17 0.17 81 1017.3
20240622171025 64 0.0 0.0 0.00 0.17 0.17 81 1016.9
20240622170518 64 0.0 0.0 0.00 0.17 0.17 79 1016.3
20240622170024 65 323 0.0 1.0 0.00 0.17 0.17 80 1016.4
20240622165517 64 323 0.0 1.0 0.00 0.17 0.17 79 1016.3
20240622165022 64 0.0 0.0 0.00 0.17 0.17 79 1016.3
20240622164515 64 319 0.0 1.0 0.00 0.17 0.17 79 1016.3
20240622164021 64 313 0.0 2.0 0.00 0.17 0.17 81 1016.3
20240622163526 64 315 0.0 2.0 0.00 0.17 0.17 82 1016.3
20240622163020 64 316 1.0 2.0 0.00 0.17 0.17 81 1016.3
20240622162525 64 313 1.0 2.0 0.00 0.17 0.17 81 1016.5
20240622162018 64 297 1.0 5.0 0.00 0.17 0.17 82 1017.3
20240622161524 64 320 0.0 2.0 0.00 0.17 0.17 82 1017.3
20240622161016 64 307 0.0 2.0 0.00 0.17 0.17 82 1017.2
20240622160522 64 306 1.0 5.0 0.00 0.17 0.17 80 1016.3
20240622160045 65 307 0.0 2.0 0.00 0.17 0.17 80 1016.3
20240622155521 66 304 1.0 6.0 0.00 0.17 0.17 77 1016.3
20240622155109 66 0.0 0.0 0.00 0.17 0.17 75 1016.3
20240622154532 65 328 0.0 0.0 0.00 0.17 0.17 78 1016.3
20240622154025 65 0.0 0.0 0.00 0.17 0.17 78 1016.3
20240622153518 66 319 0.0 2.0 0.00 0.17 0.17 77 1016.3
20240622153023 66 322 0.0 2.0 0.00 0.17 0.17 76 1016.3
20240622152516 66 310 0.0 2.0 0.00 0.17 0.17 75 1016.3
20240622152022 66 296 1.0 3.0 0.00 0.17 0.17 75 1016.3
20240622151515 67 286 1.0 6.0 0.00 0.17 0.17 74 1016.3
20240622151020 67 300 1.0 3.0 0.00 0.17 0.17 74 1016.3
20240622150526 67 350 0.0 0.0 0.00 0.17 0.17 76 1016.3
20240622150050 67 310 0.0 2.0 0.00 0.17 0.17 75 1016.3
20240622145525 66 297 1.0 5.0 0.00 0.17 0.17 75 1016.3
20240622145018 65 294 1.0 5.0 0.00 0.17 0.17 76 1017.1
20240622144523 65 291 2.0 6.0 0.00 0.17 0.17 78 1017.3
20240622144016 66 301 1.0 3.0 0.00 0.17 0.17 77 1017.3
20240622143522 66 300 2.0 6.0 0.00 0.17 0.17 75 1017.3
20240622143015 66 308 1.0 5.0 0.00 0.17 0.17 76 1017.3
20240622142520 65 337 0.0 2.0 0.00 0.17 0.17 76 1017.3
20240622142026 64 317 0.0 2.0 0.00 0.17 0.17 81 1017.2
20240622141519 63 311 0.0 2.0 0.00 0.17 0.17 82 1017.2
20240622141024 63 301 1.0 6.0 0.00 0.17 0.17 81 1017.2
20240622140517 63 291 2.0 6.0 0.00 0.17 0.17 81 1017.2
20240622140023 63 299 1.0 5.0 0.00 0.17 0.17 81 1017.2
20240622135516 63 293 1.0 5.0 0.00 0.17 0.17 82 1017.2
20240622135021 63 286 2.0 6.0 0.00 0.17 0.17 81 1017.2
20240622134515 62 276 3.0 8.0 0.00 0.17 0.17 84 1017.2
20240622134050 62 286 3.0 6.0 0.00 0.17 0.17 85 1017.2
20240622133556 63 285 3.0 7.0 0.00 0.17 0.17 85 1017.2
20240622133019 62 282 2.0 8.0 0.00 0.17 0.17 86 1017.2
20240622132524 62 311 1.0 2.0 0.00 0.17 0.17 87 1017.2
20240622132017 61 301 2.0 5.0 0.00 0.17 0.17 87 1017.2
20240622131523 61 289 2.0 9.0 0.00 0.17 0.17 88 1017.2
20240622131016 61 301 2.0 7.0 0.00 0.17 0.17 88 1017.2
20240622130521 61 296 2.0 6.0 0.00 0.24 0.17 89 1017.2
20240622130015 61 278 2.0 7.0 0.00 0.30 0.17 89 1017.2
20240622125520 61 302 0.0 2.0 0.00 0.32 0.17 91 1017.2
20240622125056 61 309 1.0 3.0 0.00 0.32 0.17 91 1017.2
20240622124519 62 308 1.0 3.0 0.00 0.32 0.17 91 1017.2
20240622124024 62 313 1.0 3.0 0.00 0.32 0.17 90 1017.3
20240622123517 62 279 2.0 5.0 0.00 0.32 0.17 90 1017.3
20240622123023 62 293 2.0 6.0 0.00 0.32 0.17 90 1017.3
20240622122516 61 296 1.0 5.0 0.00 0.32 0.17 91 1017.2
20240622122021 61 304 1.0 5.0 0.00 0.32 0.17 92 1017.2
20240622121527 61 295 2.0 5.0 0.00 0.32 0.17 92 1017.2
20240622121020 62 288 1.0 5.0 0.00 0.32 0.17 93 1017.3
20240622120538 62 313 1.0 2.0 0.00 0.32 0.17 91 1017.3
20240622120032 62 319 0.0 1.0 0.00 0.32 0.17 92 1017.3
20240622115556 62 305 1.0 3.0 0.00 0.32 0.17 92 1017.3
20240622115018 62 305 1.0 5.0 0.00 0.32 0.17 91 1017.3